User: anonymous   Login
Location: Brno
(49.2000°N, 16.6330°E)
Time: 10:47:59
(UTC+01:00)
Language:

Iridium 2 - Orbit

View from above orbital plane
View from above orbital plane
View from above satellite
View from above satellite

Ground track
Ground track

The orbit data is extracted from the following two-line orbital elements,

1 25527U 98066A   16042.54582782  .00005115  00000-0  27507-3 0  9990
2 25527  85.5339 322.0340 0012401  93.0781 320.9175 15.14564999943417
Epoch (UTC): 11 February 2016 13:05:59
Eccentricity: 0.0012401
inclination: 85.5339°
perigee height: 514 km
apogee height: 531 km
right ascension of ascending node: 322.0340°
argument of perigee: 93.0781°
revolutions per day: 15.14564999
mean anomaly at epoch: 320.9175°
orbit number at epoch: 94341

The dashed part of the orbit path shows where the satellite is in the earth's shadow,  

DLR